Zurück zum Katalog

ICEYE-X49

AktivWissenschaftVLEO
NORAD 62384·PAYLOAD·🇫🇮 Finland

Gestartet Dec 21, 2024 von Vandenberg Space Force Base

Loading…

Nächste Überflüge (nächste 24 Stunden)

TLE

AktuellSource: Space-Track

Epoche: Sep 14, 2026, 22:28 UTC

1 62384U 24247H   26257.93644201  .00004846  00000-0  28043-3 0  9995
2 62384  44.9961 237.9380 0000671 286.4491  73.6313 15.13462307 95771

Verfolge ICEYE-X49 in Echtzeit mit AllMySat

Download on the App Store